2024-173C

Last updated on Tue Oct 08 2024 00:02:04 GMT+0000 (Coordinated Universal Time)

1 61229U 24173C 24281.47221887 .00053736 00000+0 21321-2 0 9997 2 61229 97.4040 354.1374 0011387 226.2813 133.7483 15.25111328 2029
UTC large
Height (km)
Speed (km/s)
/
Latitude / Longitude
Inclination (degrees)
Orbital Period (minutes)
Azimuth
Elevation
Range (km)
Doppler Factor

Next 0 passes for location: London (51.5072 / 0.1276)

Sorry there are no passes over London.